This demonstration page uses our WeatherBlox Daily Observations layout. Learn more.

Left ArrowRight Arrow

44.31136, -96.79839

Hourly Observations for August 18, 2018

Temp ( °F °C ) Dew Point ( °F °C ) Humidity (%) Winds ( mph kmh ) Pressure ( in mb ) Visibility ( mi km ) Precip ( " mm )
12:07 am 00:07 Clear with Mist and Fog 61 16 61 16 100 100 Calm 30.09 1019 3 4 0.00 0.00
12:15 am 00:15 Clear 61 16 61 16 100 100 Calm N/A 10 16 0.00 0.00
12:24 am 00:24 Clear with Mist and Fog 63 17 63 17 100 100 Calm 30.09 1019 2 3 0.00 0.00
12:27 am 00:27 Mostly Cloudy with Mist and Fog 63 17 61 16 94 94 Calm 30.09 1019 1 2 0.00 0.00
12:30 am 00:30 Mostly Cloudy with Fog 63 17 61 16 94 94 Calm 30.09 1019 1 1 0.00 0.00
12:52 am 00:52 Mostly Cloudy with Mist and Fog 63 17 61 16 94 94 Calm 30.12 1020 1 1 0.00 0.00
12:56 am 00:56 Mostly Cloudy with Mist and Fog 62 16.7 61 16.1 96 96 Calm 30.16 1021 1 1 0.00 0.00
1:05 am 01:05 Mostly Cloudy with Fog 61 16 61 16 100 100 Calm 30.12 1020 1 1 0.00 0.00
1:19 am 01:19 Mostly Cloudy with Mist and Fog 61 16 61 16 100 100 Calm 30.12 1020 1 2 0.00 0.00
1:21 am 01:21 Partly Cloudy with Mist and Fog 61 16 61 16 100 100 Calm 30.12 1020 2 3 0.00 0.00
1:28 am 01:28 Mostly Clear 61 16 61 16 100 100 Calm 30.12 1020 8 13 0.00 0.00
1:56 am 01:56 Clear 58 14.4 58 14.4 100 100 Calm 30.15 1021 10 16 0.00 0.00
2:14 am 02:14 Partly Cloudy with Mist and Fog 57 14 57 14 100 100 Calm 30.12 1020 5 8 0.00 0.00
2:23 am 02:23 Mostly Clear with Mist and Fog 59 15 59 15 100 100 Calm 30.12 1020 2 2 0.00 0.00
2:39 am 02:39 Mostly Clear with Mist and Fog 59 15 59 15 100 100 Calm 30.12 1020 4 6 0.00 0.00
2:56 am 02:56 Clear 58 14.4 57 13.9 97 97 Calm 30.15 1021 10 16 0.00 0.00
3:30 am 03:30 Mostly Clear with Mist and Fog 61 16 61 16 100 100 Calm 30.09 1019 3 4 0.00 0.00
3:35 am 03:35 Mostly Cloudy with Mist and Fog 59 15 57 14 94 94 Calm 30.12 1020 2 2 0.00 0.00
3:40 am 03:40 Mostly Cloudy with Mist and Fog 57 14 55 13 94 94 Calm 30.12 1020 3 5 0.00 0.00
3:44 am 03:44 Mostly Cloudy with Mist and Fog 57 14 55 13 94 94 Calm 30.12 1020 2 2 0.00 0.00
3:47 am 03:47 Mostly Cloudy with Mist and Fog 57 14 55 13 94 94 Calm 30.12 1020 1 1 0.00 0.00
3:56 am 03:56 Cloudy with Mist and Fog 57 13.9 57 13.9 100 100 Calm 30.15 1021 1 1 0.00 0.00
4:10 am 04:10 Cloudy with Fog 57 14 55 13 94 94 Calm 30.12 1020 0 0 0.00 0.00
4:30 am 04:30 Cloudy with Mist and Fog 55 13 55 13 100 100 Calm 30.12 1020 1 1 0.00 0.00
5:00 am 05:00 Cloudy with Fog 57 14 57 14 100 100 ESE 3 6 30.12 1020 1 1 0.00 0.00
5:10 am 05:10 Cloudy with Fog 57 14 57 14 100 100 ESE 3 6 30.12 1020 0 0 0.00 0.00
5:56 am 05:56 Cloudy with Fog 58 14.4 58 14.4 100 100 ESE 3 6 30.14 1021 0 0 0.00 0.00
6:13 am 06:13 Cloudy with Fog 59 15 57 14 94 94 Calm 30.12 1020 1 1 0.00 0.00
6:33 am 06:33 Cloudy with Fog 59 15 57 14 94 94 E 3 6 30.12 1020 0 0 0.00 0.00
6:56 am 06:56 Cloudy with Fog 58 14.4 58 14.4 100 100 ESE 3 6 30.14 1021 0 0 0.00 0.00
7:33 am 07:33 Cloudy with Mist and Fog 59 15 57 14 94 94 undefined N/A 30.12 1020 1 1 0.00 0.00
7:35 am 07:35 Mostly Cloudy with Mist and Fog 59 15 57 14 94 94 undefined N/A 30.12 1020 1 2 0.00 0.00
7:38 am 07:38 Mostly Cloudy with Mist and Fog 59 15 57 14 94 94 ESE 3 6 30.12 1020 4 6 0.00 0.00
7:56 am 07:56 Mostly Sunny 60 15.6 59 15 96 96 undefined N/A 30.14 1021 10 16 0.00 0.00
8:56 am 08:56 Sunny 63 17.2 62 16.7 97 97 SSE 5 7 30.13 1020 10 16 0.00 0.00
9:56 am 09:56 Sunny 66 18.9 65 18.3 96 96 SE 9 15 30.12 1020 10 16 0.00 0.00
10:56 am 10:56 Sunny 70 21.1 65 18.3 84 84 S 8 13 30.11 1020 10 16 0.00 0.00
11:56 am 11:56 Sunny 73 22.8 65 18.3 76 76 S 9 15 30.10 1019 10 16 0.00 0.00
12:56 pm 12:56 Sunny 75 23.9 67 19.4 76 76 S 12 19 30.08 1019 10 16 0.00 0.00
1:56 pm 13:56 Sunny 76 24.4 67 19.4 74 74 SSE 10 17 30.06 1018 10 16 0.00 0.00
2:56 pm 14:56 Sunny 77 25 67 19.4 71 71 SSE 13 20 30.04 1017 10 16 0.00 0.00
3:56 pm 15:56 Sunny 77 25 67 19.4 71 71 S 10 17 30.04 1017 10 16 0.00 0.00
5:56 pm 17:56 Sunny 75 23.9 67 19.4 76 76 SSE 12 19 30.00 1016 10 16 0.00 0.00
6:56 pm 18:56 Sunny 74 23.3 64 17.8 71 71 SSE 9 15 29.99 1016 10 16 0.00 0.00
7:56 pm 19:56 Sunny 71 21.7 65 18.3 81 81 SE 10 17 29.98 1015 10 16 0.00 0.00
8:56 pm 20:56 Clear 69 20.6 66 18.9 90 90 SE 12 19 29.98 1015 10 16 0.00 0.00

Powered by AerisWeather